星链-30989 (STARLINK-30989 )

导读 | 星芒AI

STARLINK-30989 是 SpaceX Starlink 卫星互联网项目中的一颗低轨道卫星,属于第 6 批组网卫星(v1.5 版本)。该卫星于 2023 年发射,运行在约 550 公里的高度,旨在为全球提供高速互联网服务。Starlink 卫星采用先进推进系统和激光通信技术,支持全球范围内的宽带连接,尤其在偏远地区具有重要意义。STARLINK-30989 与其他卫星协同工作,提升网络覆盖与服务质量。

基本信息
目录编号:
58510
目录名称:
STARLINK-30989
国际标识:
2023-191C
轨道中心:
EARTH
卫星名称:
星链-30989
卫星全名:
星链-30989 (STARLINK-30989 )
卫星状态:
在轨 (已飞行743 天)
发射日期:
2023-12-07 UTC
国别 :
美国 (US)
星等 :
--
轨道信息
数据来源 国际轨道数据 AOE轨道数据
星历时间 2025-12-19T13:30:30+0800
14小时前
查看轨道信息
2025-12-17T15:00:00+0800
2天前
查看轨道信息
半长轴 6937.227km 6937.171km
偏心率 0.0001066 0.000114
轨道倾角 43.002° 43.002°
近地点辐角 261.806° 262.402°
升交点赤经 183.560° 194.091°
平近点角 98.266° 43.612°
近地点 558.35km 558.245km
远地点 559.83km 559.827km
周期 95.838分钟 95.837分钟
每日圈数 15.025328 15.02551
详细信息
固有亮度:
5
最大亮度:
0.3
卫星平台:
Starlink v2.0 mini
覆盖范围:
全球
运营商:
太空探索技术公司
运营商所在国:
美国
制造商(研发单位):
太空探索技术公司
制造商所在国:
美国
使用方式:
暂无
卫星简介
星链(Starlink)计划是由太空探索技术公司(SpaceX)提出的一个巨型低轨卫星互联网星座项目,计划在2019年至2024年间在太空搭建由约1.2万颗卫星组成的“星链”网络,其中1584颗将部署在地球上空550千米处的近地轨道,并从2020年开始工作。该卫星仍在工作。
2D轨道图
3D轨道图
轨道高度分析图
轨道倾角分析图
轨道综合分析图
查看轨道综合分析图